TimeEDT,TemperatureF,Dew PointF,Humidity,Sea Level PressureIn,VisibilityMPH,Wind Direction,Wind SpeedMPH,Gust SpeedMPH,PrecipitationIn,Events,Conditions,WindDirDegrees,DateUTC
12:53 AM,75.9,72.0,87,30.06,9.0,SSW,4.6,-,N/A,,Clear,200,2013-09-05 04:53:00
1:53 AM,73.9,71.1,91,30.07,8.0,Calm,Calm,-,N/A,,Clear,0,2013-09-05 05:53:00
2:53 AM,73.0,71.1,93,30.05,5.0,Calm,Calm,-,N/A,,Clear,0,2013-09-05 06:53:00
3:53 AM,72.0,70.0,93,30.04,5.0,Calm,Calm,-,N/A,,Clear,0,2013-09-05 07:53:00
4:53 AM,72.0,70.0,93,30.04,5.0,Calm,Calm,-,N/A,,Clear,0,2013-09-05 08:53:00
5:53 AM,72.0,70.0,93,30.04,4.0,Calm,Calm,-,N/A,,Clear,0,2013-09-05 09:53:00
6:53 AM,73.0,70.0,90,30.06,5.0,Calm,Calm,-,N/A,,Clear,0,2013-09-05 10:53:00
7:53 AM,73.0,70.0,90,30.07,5.0,Calm,Calm,-,N/A,,Clear,0,2013-09-05 11:53:00
8:53 AM,79.0,71.1,77,30.09,8.0,North,3.5,-,N/A,,Clear,10,2013-09-05 12:53:00
9:53 AM,81.0,72.0,74,30.10,8.0,ENE,4.6,-,N/A,,Clear,70,2013-09-05 13:53:00
10:53 AM,84.9,71.1,63,30.11,9.0,Variable,3.5,-,N/A,,Clear,0,2013-09-05 14:53:00
11:53 AM,87.1,70.0,57,30.11,10.0,NE,6.9,-,N/A,,Clear,50,2013-09-05 15:53:00
12:53 PM,89.1,68.0,50,30.09,10.0,Variable,3.5,-,N/A,,Scattered Clouds,0,2013-09-05 16:53:00
1:53 PM,89.1,64.9,45,30.08,10.0,Calm,Calm,-,N/A,,Clear,0,2013-09-05 17:53:00
2:53 PM,90.0,66.0,45,30.06,10.0,NW,5.8,-,N/A,,Clear,320,2013-09-05 18:53:00
3:53 PM,90.0,64.0,42,30.04,10.0,Variable,5.8,-,N/A,,Clear,0,2013-09-05 19:53:00
4:53 PM,89.1,64.9,45,30.03,10.0,WNW,5.8,-,N/A,,Partly Cloudy,300,2013-09-05 20:53:00
5:53 PM,90.0,64.9,43,30.03,10.0,Variable,3.5,-,N/A,,Scattered Clouds,0,2013-09-05 21:53:00
6:53 PM,88.0,64.9,46,30.03,10.0,Calm,Calm,-,N/A,,Clear,0,2013-09-05 22:53:00
7:53 PM,79.0,71.1,77,30.05,10.0,Calm,Calm,-,N/A,,Clear,0,2013-09-05 23:53:00
8:53 PM,77.0,71.1,82,30.06,10.0,Calm,Calm,-,N/A,,Clear,0,2013-09-06 00:53:00
9:53 PM,75.9,72.0,87,30.06,9.0,Calm,Calm,-,N/A,,Clear,0,2013-09-06 01:53:00
10:53 PM,73.9,72.0,93,30.06,8.0,Calm,Calm,-,N/A,,Clear,0,2013-09-06 02:53:00
11:53 PM,73.0,71.1,93,30.07,4.0,Calm,Calm,-,N/A,,Clear,0,2013-09-06 03:53:00